Wind_Speed
21 21 21 21 21 21 20 20 20 19 18 17 17 18 18 18 18 18 19 20 20 21 22 22 22 21 20 19 19 19 19 19 19 18 17 16 15 16 18 19 19 19 18
26 27 27 26 26 25 25 23 22 21 20 20 19 19 19 18 18 19 20 21 21 22 22 22 22 21 21 20 20 19 19 20 19 18 18 17 16 16 17 18 19 19 19
30 31 32 32 31 30 28 27 26 24 23 22 21 20 19 19 19 20 21 21 21 22 22 21 21 20 20 20 20 20 20 20 19 19 18 18 17 16 16 18 19 20 19
34 34 35 36 35 35 33 30 28 26 25 24 22 21 21 21 21 21 21 21 21 20 20 21 21 21 20 20 20 20 21 20 20 19 18 18 18 17 17 18 20 20 20
35 37 37 37 38 37 35 33 30 28 27 26 24 23 22 22 22 22 22 22 21 21 20 21 22 22 21 21 21 21 21 21 20 20 19 18 18 18 18 18 19 21 22
38 38 38 38 38 36 35 34 32 29 28 27 26 25 24 23 22 22 22 22 22 22 23 22 22 23 23 22 22 22 22 22 21 20 20 19 18 18 18 18 19 21 22
40 41 39 40 40 38 38 35 33 30 29 27 27 26 25 24 22 22 22 22 22 23 23 24 24 24 24 23 23 23 23 23 22 20 20 19 19 18 18 18 19 20 21
42 43 43 42 41 41 39 36 34 31 30 29 29 28 26 25 24 22 22 22 23 23 24 25 26 26 26 25 24 24 24 23 22 21 20 19 19 19 18 18 19 20 20
44 45 44 44 43 42 40 38 35 33 31 30 30 29 27 26 25 23 22 22 23 24 25 25 26 27 27 27 26 25 24 23 23 21 20 19 19 18 19 19 19 19 18
46 46 46 46 46 45 43 40 37 34 32 32 31 30 28 27 27 26 24 23 23 24 25 27 27 28 28 29 28 26 24 23 23 21 20 19 18 18 19 19 19 19 17
48 48 48 48 46 45 43 41 38 36 34 32 31 31 29 29 28 27 26 26 25 25 25 27 29 29 30 30 29 27 25 23 22 21 19 18 17 17 18 19 20 20 20
49 49 48 46 45 43 41 40 37 36 35 33 33 32 30 29 29 29 28 28 28 28 28 28 29 29 30 30 29 27 24 22 21 20 19 18 17 17 17 18 20 22 21
49 48 46 45 43 42 40 38 36 36 35 35 33 32 31 30 30 30 29 28 29 30 30 29 28 28 29 28 27 25 24 22 20 19 19 18 17 16 16 17 20 20 21
47 45 43 42 41 40 38 37 36 35 35 34 32 31 31 30 30 29 29 29 28 28 28 29 28 27 28 27 26 24 23 21 20 19 18 17 17 16 16 16 18 19 19
43 41 40 39 37 36 35 34 34 33 32 31 31 30 29 29 29 29 28 27 27 26 26 28 27 27 27 26 25 23 23 22 20 19 18 18 17 16 15 15 16 16 15
39 38 36 35 34 33 33 32 32 31 30 29 28 28 28 28 27 26 26 26 26 26 25 27 27 27 26 25 24 24 23 23 21 19 18 17 16 15 14 13 14 14 14
37 36 35 34 31 30 29 29 29 29 28 28 28 28 27 26 26 25 25 25 25 25 24 25 27 26 26 25 24 23 22 22 21 19 17 16 15 14 14 14 14 14 14
34 33 31 29 28 27 28 28 28 28 27 27 27 27 26 26 26 26 26 26 25 25 25 25 26 26 26 25 25 24 23 22 21 19 17 16 15 14 14 15 15 15 15
33 32 31 29 29 28 28 28 28 28 28 27 27 27 27 27 27 28 27 27 26 26 26 25 25 26 26 26 26 25 24 23 21 19 17 16 15 16 17 17 18 17 17
34 34 33 33 32 31 31 30 30 30 30 30 29 29 29 29 30 30 29 29 29 28 27 26 26 27 27 27 27 27 25 23 21 19 18 17 17 18 20 20 20 20 19
37 37 37 37 37 36 36 36 35 35 34 34 34 33 32 32 32 32 32 31 31 30 29 28 27 27 27 27 27 27 26 24 21 20 20 19 18 19 21 22 24 23 22
40 40 40 40 41 41 41 42 42 41 41 40 39 38 37 37 36 35 35 34 33 33 32 30 28 28 28 28 28 28 27 25 22 21 21 20 20 20 22 24 26 26 24
41 41 42 43 44 44 45 45 46 46 45 44 44 43 42 41 40 39 37 36 36 35 34 32 30 29 28 28 27 27 27 26 24 22 21 21 21 21 22 23 24 25 25
41 41 42 43 44 45 45 46 46 46 45 45 45 44 43 42 41 40 39 38 37 37 36 35 33 31 30 29 29 28 28 27 26 25 24 22 21 21 22 22 23 24 24
38 39 39 40 41 42 43 43 44 44 43 43 42 41 40 40 39 39 39 38 38 38 37 37 36 34 33 31 31 30 29 28 27 27 26 25 25 23 22 21 21 23 25
35 36 36 37 38 38 38 38 38 39 38 38 38 37 37 37 38 38 38 39 39 38 38 37 37 36 35 34 33 32 31 30 29 29 28 26 25 24 23 23 21 22 23
Wind_Direction
315 315 313 312 310 308 306 304 301 300 296 294 292 293 295 298 301 303 304 305 308 312 314 315 317 317 314 310 307 306 308 310 311 310 307 299 290 273 264 259 258 260 261
314 315 313 311 308 305 303 301 297 297 293 290 289 289 290 293 296 299 301 303 306 308 310 312 313 314 313 310 308 307 307 309 309 307 303 299 293 280 269 264 262 261 262
311 312 311 310 307 304 300 298 296 294 290 286 283 284 285 287 291 295 298 300 302 305 307 310 311 311 311 309 307 306 306 307 307 305 301 296 294 285 275 272 269 264 262
309 310 311 309 305 302 298 295 292 289 287 285 281 280 281 283 288 293 296 298 301 302 304 307 308 309 309 308 307 306 305 306 306 303 300 295 292 289 284 279 276 266 263
307 307 308 311 309 306 300 293 288 285 285 285 282 280 279 279 284 289 293 295 296 297 299 303 306 308 309 309 308 307 306 305 304 302 299 295 291 289 283 281 278 270 265
302 304 307 311 312 310 307 298 291 286 286 288 287 284 279 276 279 283 286 288 289 293 296 299 302 305 307 308 309 309 308 307 304 301 298 295 289 288 283 279 282 276 269
299 302 304 307 308 309 308 302 294 288 286 287 289 288 284 278 276 278 281 283 284 286 290 294 297 300 303 305 307 309 309 308 305 301 297 293 288 284 282 282 280 282 271
295 297 300 302 305 307 307 303 295 289 286 285 288 288 284 279 275 275 276 278 281 283 285 288 292 295 298 301 304 307 308 308 305 300 297 292 286 283 279 279 276 282 275
292 295 298 299 301 303 303 302 294 288 285 284 285 285 282 278 276 276 275 275 278 282 284 285 288 291 294 297 300 303 306 305 303 299 296 291 285 281 277 272 273 276 270
291 293 295 297 298 299 299 298 293 287 281 279 280 280 279 277 275 277 277 275 277 280 284 287 289 290 291 294 297 300 302 302 300 297 294 289 283 280 278 270 270 266 273
291 292 294 295 296 296 295 294 290 283 277 275 276 276 275 275 274 276 278 280 280 280 281 285 287 288 288 290 293 298 300 300 297 295 292 287 283 280 276 271 265 267 277
291 292 293 293 293 292 291 289 287 279 274 271 272 272 272 273 273 276 278 280 284 286 287 286 286 287 287 288 291 295 298 298 294 291 288 285 281 278 274 270 266 267 271
290 291 291 290 289 288 286 283 283 277 271 269 269 269 270 271 272 275 278 281 284 287 289 288 287 286 287 287 289 292 294 294 291 289 286 282 279 276 272 268 264 265 270
288 289 287 286 285 283 281 278 278 274 269 268 267 267 268 269 271 274 278 281 284 286 287 288 287 287 287 287 288 289 290 291 290 288 285 281 278 275 268 262 259 263 265
286 286 285 284 281 279 277 275 273 271 268 268 268 268 268 269 271 274 277 280 282 284 285 288 288 288 287 286 285 284 285 287 288 287 284 282 281 275 267 255 255 255 249
284 284 283 283 280 276 274 273 270 268 269 269 268 269 270 271 272 274 277 280 283 285 286 287 288 288 286 285 283 282 282 283 285 284 281 282 282 274 263 250 243 238 231
284 284 284 282 278 274 273 272 271 271 270 268 269 271 271 271 272 274 277 280 283 285 286 287 288 288 286 284 282 283 281 280 282 279 276 278 278 271 255 242 234 224 217
282 283 285 284 279 276 275 274 273 274 273 273 273 272 272 273 274 275 276 277 280 283 286 286 287 287 284 282 281 281 281 280 280 274 272 273 273 265 252 237 226 218 212
279 281 281 282 281 277 276 277 276 276 277 277 276 275 276 276 275 275 276 276 277 281 283 285 285 284 282 280 278 278 280 278 277 271 266 267 269 262 248 235 224 217 213
277 277 277 278 278 277 277 276 277 278 278 278 278 278 278 278 277 276 276 275 275 278 280 281 281 280 279 277 275 275 278 276 273 269 266 265 267 260 248 235 225 220 218
275 275 276 276 276 276 276 276 276 276 278 279 278 278 279 279 279 277 276 275 275 275 276 276 276 276 276 275 274 274 276 274 270 267 263 265 267 265 255 238 228 225 225
275 276 276 276 276 276 275 275 274 275 276 276 277 277 277 277 278 277 276 274 274 273 273 273 272 270 270 271 271 272 273 272 270 265 261 261 267 269 263 247 236 230 230
277 277 277 277 276 276 276 275 275 275 275 276 276 276 276 276 276 275 274 273 272 271 270 270 268 267 265 265 266 268 268 268 265 262 260 260 264 267 266 257 250 240 233
279 280 280 279 278 278 278 278 278 277 276 276 276 275 275 274 273 272 272 270 269 268 266 265 264 262 261 260 260 260 262 264 265 263 262 263 263 264 261 256 253 249 242
282 282 282 281 281 280 280 279 279 278 277 277 276 275 274 272 270 269 267 266 265 264 263 261 260 259 257 256 256 257 259 260 261 261 262 263 261 258 255 254 253 249 243
285 285 285 284 283 283 283 281 280 278 277 276 274 272 270 268 265 264 263 262 261 260 260 259 258 257 256 256 256 256 255 255 256 257 257 258 255 252 252 250 250 247 243
Height
5910 5909 5908 5907 5905 5904 5903 5902 5900 5898 5897 5896 5895 5894 5893 5892 5891 5890 5889 5887 5885 5884 5882 5880 5878 5876 5874 5873 5873 5872 5871 5870 5868 5867 5866 5865 5865 5865 5865 5866 5867 5867 5868
5907 5907 5906 5904 5903 5901 5899 5898 5896 5895 5894 5893 5892 5891 5890 5889 5887 5886 5885 5884 5882 5880 5878 5876 5874 5872 5871 5869 5868 5867 5867 5865 5864 5863 5862 5861 5861 5860 5860 5861 5862 5863 5863
5904 5903 5902 5900 5899 5897 5895 5894 5892 5891 5889 5888 5887 5886 5886 5885 5884 5882 5881 5880 5878 5877 5874 5872 5871 5869 5867 5866 5864 5863 5862 5861 5860 5859 5858 5857 5856 5856 5856 5856 5857 5858 5858
5899 5898 5897 5895 5893 5891 5890 5888 5887 5885 5884 5883 5882 5882 5881 5880 5879 5878 5877 5875 5874 5873 5871 5869 5867 5865 5863 5862 5860 5859 5858 5857 5856 5854 5853 5852 5852 5851 5851 5851 5852 5852 5854
5894 5893 5892 5889 5887 5884 5883 5881 5880 5879 5878 5877 5876 5876 5876 5875 5875 5874 5872 5871 5869 5868 5867 5865 5863 5861 5859 5858 5856 5855 5854 5853 5851 5850 5849 5848 5847 5847 5846 5847 5847 5847 5848
5889 5887 5886 5883 5881 5879 5877 5875 5874 5873 5872 5871 5870 5870 5870 5869 5869 5869 5868 5866 5865 5863 5862 5861 5859 5857 5855 5854 5852 5850 5849 5848 5846 5845 5844 5843 5843 5842 5842 5842 5842 5842 5843
5883 5881 5880 5878 5875 5873 5871 5869 5867 5866 5866 5865 5864 5864 5863 5863 5863 5863 5862 5861 5860 5859 5858 5856 5854 5853 5851 5849 5848 5846 5844 5843 5841 5840 5839 5838 5838 5837 5837 5837 5837 5837 5838
5876 5874 5873 5871 5869 5867 5865 5862 5861 5860 5860 5859 5858 5857 5857 5858 5857 5857 5856 5856 5855 5854 5853 5852 5850 5848 5846 5845 5843 5841 5839 5838 5836 5835 5834 5833 5833 5832 5832 5833 5832 5832 5832
5869 5867 5866 5864 5862 5860 5858 5856 5854 5853 5853 5852 5851 5851 5851 5851 5851 5851 5850 5850 5849 5849 5848 5846 5845 5843 5841 5840 5838 5836 5834 5833 5831 5830 5829 5828 5828 5827 5827 5827 5827 5827 5828
5861 5860 5858 5857 5855 5852 5850 5849 5847 5846 5846 5846 5845 5844 5844 5844 5844 5844 5844 5844 5844 5843 5842 5840 5838 5837 5836 5834 5832 5831 5829 5828 5826 5825 5824 5823 5823 5822 5822 5821 5821 5822 5823
5853 5851 5850 5848 5846 5844 5842 5840 5839 5838 5838 5838 5838 5838 5838 5837 5837 5837 5837 5836 5837 5837 5836 5835 5833 5831 5830 5828 5827 5825 5824 5822 5821 5820 5819 5818 5818 5817 5817 5816 5816 5817 5818
5843 5842 5840 5838 5836 5835 5833 5832 5831 5830 5830 5830 5831 5830 5830 5830 5830 5830 5830 5829 5828 5828 5828 5828 5826 5825 5823 5822 5821 5820 5819 5817 5816 5815 5814 5813 5813 5812 5812 5812 5812 5812 5813
5833 5832 5830 5828 5827 5825 5824 5823 5822 5822 5821 5821 5822 5822 5823 5823 5823 5823 5822 5822 5822 5821 5820 5820 5819 5818 5817 5816 5815 5814 5813 5812 5811 5810 5810 5809 5808 5808 5807 5807 5808 5807 5808
5823 5822 5820 5819 5817 5816 5815 5814 5814 5813 5813 5813 5813 5814 5815 5815 5816 5815 5815 5815 5814 5814 5813 5812 5812 5811 5810 5809 5809 5808 5807 5807 5806 5805 5805 5804 5804 5803 5803 5803 5803 5804 5804
5814 5812 5811 5809 5808 5807 5806 5806 5805 5806 5805 5805 5806 5806 5807 5807 5808 5808 5808 5807 5807 5807 5807 5805 5804 5804 5804 5803 5802 5802 5802 5801 5801 5800 5800 5799 5799 5798 5798 5798 5798 5799 5800
5804 5803 5802 5801 5799 5799 5798 5798 5798 5798 5798 5798 5798 5799 5799 5800 5800 5800 5800 5800 5800 5800 5800 5798 5797 5797 5797 5797 5796 5796 5796 5796 5796 5795 5795 5795 5794 5794 5794 5794 5794 5795 5797
5796 5795 5793 5792 5791 5791 5791 5790 5791 5791 5791 5791 5791 5791 5792 5792 5793 5793 5793 5793 5793 5793 5793 5792 5791 5790 5790 5791 5791 5791 5791 5791 5791 5790 5790 5790 5790 5790 5790 5790 5791 5792 5794
5787 5787 5786 5785 5784 5784 5784 5784 5784 5784 5784 5784 5784 5784 5784 5785 5785 5785 5786 5786 5786 5786 5786 5786 5784 5784 5784 5785 5785 5785 5786 5786 5786 5786 5786 5786 5786 5786 5787 5787 5788 5789 5791
5779 5779 5779 5778 5778 5777 5777 5777 5777 5777 5777 5777 5777 5777 5777 5777 5778 5778 5778 5779 5779 5779 5779 5779 5778 5778 5778 5779 5779 5780 5780 5780 5780 5780 5780 5781 5781 5782 5783 5784 5785 5787 5788
5771 5771 5771 5770 5770 5770 5769 5769 5770 5769 5769 5769 5769 5769 5769 5769 5770 5770 5770 5771 5771 5772 5772 5772 5772 5771 5772 5772 5773 5774 5774 5774 5775 5775 5775 5776 5776 5777 5778 5779 5781 5783 5785
5762 5762 5762 5761 5761 5761 5761 5761 5761 5761 5761 5761 5761 5761 5761 5761 5761 5761 5762 5762 5763 5764 5764 5765 5765 5765 5765 5766 5766 5767 5768 5768 5768 5769 5770 5770 5770 5771 5772 5774 5776 5778 5780
5753 5752 5752 5752 5751 5751 5751 5750 5750 5751 5751 5751 5751 5751 5751 5752 5752 5752 5753 5753 5754 5755 5756 5756 5757 5758 5759 5759 5760 5760 5761 5762 5763 5764 5764 5764 5764 5765 5766 5767 5769 5771 5774
5742 5741 5741 5741 5740 5740 5739 5739 5739 5739 5739 5739 5739 5740 5741 5741 5742 5742 5743 5743 5744 5745 5746 5747 5748 5749 5751 5751 5752 5753 5754 5755 5756 5757 5757 5757 5758 5759 5760 5760 5762 5765 5767
5732 5731 5730 5729 5729 5728 5727 5727 5726 5726 5726 5727 5727 5728 5728 5729 5730 5731 5732 5733 5734 5735 5736 5737 5738 5740 5741 5743 5744 5746 5747 5748 5749 5750 5751 5752 5752 5753 5753 5754 5756 5758 5760
5722 5720 5719 5718 5717 5717 5716 5715 5714 5714 5714 5714 5714 5715 5716 5717 5718 5720 5721 5722 5723 5724 5725 5726 5728 5729 5731 5733 5735 5737 5739 5740 5742 5743 5744 5745 5746 5747 5747 5748 5749 5751 5753
5713 5711 5710 5708 5707 5706 5705 5704 5703 5702 5702 5702 5702 5703 5704 5705 5706 5708 5709 5711 5712 5713 5715 5716 5717 5719 5721 5723 5725 5727 5729 5731 5733 5735 5736 5738 5739 5740 5740 5741 5743 5744 5746